Weather History for Atlantic City, NJ

Change the Weather History Date:

Saturday, November 9, 2013

  Actual Average Record
Temperature  
Mean Temperature 40 °F 49 °F  
Max Temperature 51 °F 59 °F 76 °F (1986)
Min Temperature 29 °F 39 °F 17 °F (1967)
Degree Days  
Heating Degree Days 25 16  
Month to date heating degree days 148 135  
Since 1 July heating degree days 513 493  
Cooling Degree Days 0 0  
Month to date cooling degree days 0 0  
Year to date cooling degree days 1088 1054  
Moisture  
Dew Point 29 °F    
Average Humidity 61    
Maximum Humidity 85    
Minimum Humidity 36    
Precipitation  
Precipitation 0.00 in 0.11 in 1.33 in (1969)
Month to date precipitation 0.46 1.00  
Year to date precipitation 37.97 35.79  
Snow  
Snow 0.00 in 0.00 in T in (1967)
Month to date snowfall 0.0 0.0  
Since 1 July snowfall 0.0 0.0  
Since 1 September snowfall 0.0 0.0  
Snow Depth 0.00 in    
Sea Level Pressure  
Sea Level Pressure 30.23 in    
Wind  
Wind Speed 6 mph (SW)    
Max Wind Speed 13 mph    
Max Gust Speed 16 mph    
Visibility 10 miles    
Events      
T = Trace of Precipitation, MM = Missing Value Source: NWS Daily Summary

Daily Weather History Graph

Daily Weather History Graph

Search for Another Location

Airport:

Trip Planner

Search our weather history database for the weather conditions in past years. The results will help you decide how hot, cold, wet, or windy it might be!

Date:

Astronomy

Nov. 09, 2013 Rise Set
Actual Time 6:35 AM EST 4:48 PM EST
Civil Twilight 6:07 AM EST 5:16 PM EST
Nautical Twilight 5:35 AM EST 5:48 PM EST
Astronomical Twilight 5:03 AM EST 6:20 PM EST
Moon 12:11 PM EST (11/9) 11:15 PM EST (11/9)
Length of Visible Light 11h 09m
Length of Day
10h 12m
Waxing Crescent, 44% of the Moon is Illuminated
Nov 9
Waxing Crescent
Nov 10
First Quarter
Nov 17
Full
Nov 25
Last Quarter
Dec 2
New

Hourly Weather History & Observations

Time (EST) Temp. Windchill Dew Point Humidity Pressure Visibility Wind Dir Wind Speed Gust Speed Precip Events Conditions
12:54 AM 36.0 °F 30.3 °F 27.0 °F 70% 30.28 in 10.0 mi West 6.9 mph - N/A   Clear
1:54 AM 34.0 °F 29.8 °F 26.1 °F 73% 30.30 in 10.0 mi West 4.6 mph - N/A   Clear
2:54 AM 34.0 °F 28.8 °F 26.1 °F 73% 30.30 in 10.0 mi West 5.8 mph - N/A   Clear
3:54 AM 32.0 °F - 25.0 °F 75% 30.31 in 10.0 mi Calm Calm - N/A   Clear
4:54 AM 30.9 °F - 25.0 °F 79% 30.32 in 10.0 mi Calm Calm - N/A   Clear
5:54 AM 30.9 °F - 26.1 °F 82% 30.32 in 10.0 mi Calm Calm - N/A   Clear
6:54 AM 33.1 °F - 26.1 °F 75% 30.33 in 10.0 mi Calm Calm - N/A   Clear
7:54 AM 36.0 °F - 28.0 °F 73% 30.33 in 8.0 mi Calm Calm - N/A   Clear
8:54 AM 43.0 °F 41.3 °F 28.9 °F 58% 30.34 in 10.0 mi Variable 3.5 mph - N/A   Clear
9:54 AM 46.9 °F - 27.0 °F 46% 30.34 in 10.0 mi Variable 5.8 mph - N/A   Clear
10:54 AM 46.9 °F - 24.1 °F 41% 30.31 in 10.0 mi West 5.8 mph - N/A   Clear
11:54 AM 48.9 °F - 25.0 °F 39% 30.28 in 10.0 mi West 8.1 mph - N/A   Clear
12:54 PM 50.0 °F - 25.0 °F 38% 30.25 in 10.0 mi West 10.4 mph - N/A   Clear
1:54 PM 51.1 °F - 26.1 °F 38% 30.22 in 10.0 mi West 9.2 mph - N/A   Clear
2:54 PM 50.0 °F - 25.0 °F 38% 30.19 in 10.0 mi SSW 10.4 mph - N/A   Clear
3:54 PM 48.9 °F - 27.0 °F 43% 30.18 in 10.0 mi SW 11.5 mph - N/A   Clear
4:54 PM 46.9 °F - 30.0 °F 52% 30.17 in 10.0 mi South 8.1 mph - N/A   Clear
5:54 PM 46.0 °F 43.1 °F 33.1 °F 61% 30.17 in 10.0 mi South 5.8 mph - N/A   Clear
6:54 PM 46.9 °F - 35.1 °F 63% 30.15 in 10.0 mi SSW 6.9 mph - N/A   Clear
7:54 PM 46.9 °F - 33.1 °F 59% 30.14 in 10.0 mi SSW 8.1 mph - N/A   Clear
8:54 PM 48.0 °F - 32.0 °F 54% 30.12 in 10.0 mi SSW 8.1 mph - N/A   Clear
9:54 PM 48.0 °F - 35.1 °F 61% 30.10 in 10.0 mi SSW 8.1 mph - N/A   Clear
10:54 PM 48.0 °F - 36.0 °F 63% 30.07 in 10.0 mi SW 8.1 mph - N/A   Clear
11:54 PM 48.0 °F - 37.0 °F 66% 30.04 in 10.0 mi SW 8.1 mph - N/A   Clear